weather.gov     
National Weather Service

Regional Weather Roundup
NWS Homepage
This page is being discontinued on March 12, 2014.
The same data is available at this site. Please update your bookmarks.
Thank you, and we apologize for the inconvenience.
Please send an email to SR-SRH.Webmaster@noaa.gov with any concerns.


Current Version
Previous Version:    01  02  03  04  05  06  07  08  09  10  11  12  13  14  15  16  17  18  19  20  21  22  23  24  25  26  
[Printable]
449
ASUS41 KBGM 210310
RWRBGM
RWRBGM
BINGHAMTON REGIONAL WEATHER ROUNDUP
NATIONAL WEATHER SERVICE BINGHAMTON NY
1100 PM EDT MON OCT 20 2014

Note: "fair" indicates few or no clouds below 12,000 feet with no
significant weather and/or obstructions to visibility.

* = Station(s) that does not report precipitation, such as rain,
snow, etc, also no thunder or fog.

!NYZ009-015>018-022>025-036-037-044>046-055>057-062-210400
...CENTRAL NEW YORK...

CITY           SKY/WX    TMP DP  RH WIND       PRES   REMARKS
BINGHAMTON     CLOUDY    49  36  61 S6        29.89F
CORTLAND       LGT RAIN  46  43  87 CALM      29.90S
DANSVILLE      CLOUDY    50  46  86 S3        29.86S
ELMIRA         CLOUDY    48  46  93 N3        29.88S
ITHACA         CLOUDY    47  42  82 SE5       29.90F
HAMILTON       CLOUDY    48  39  71 CALM      29.90S
MONTICELLO     CLOUDY    46  37  71 E3        29.95F
NORWICH        CLOUDY    46  37  71 CALM      29.91S
ONEONTA        PTCLDY    48  36  61 CALM      29.91S
PENN YAN       LGT RAIN  49  44  83 SW6       29.87S
ROME           LGT RAIN  50  40  68 E7        29.90S
SIDNEY         MOCLDY    52  41  66 SW5       29.91S
SYRACUSE       LGT RAIN  54  43  66 MISG      29.88R
$$

!PAZ038>040-043-044-047-048-072-210400
...NORTHEAST PENNSYLVANIA...

CITY           SKY/WX    TMP DP  RH WIND       PRES   REMARKS
HAZLETON       CLOUDY    52  43  71 SE3       29.95F
SCRANTON       CLOUDY    54  41  61 W6        29.92F
TOWANDA*       MOCLDY    52  39  62 CALM      29.91S
$$
&&
KEY
WCI = WIND CHILL INDEX
VSB = VISIBILITY
HX  = HEAT INDEX
$$




U.S. Dept. of Commerce
NOAA National Weather Service
1325 East West Highway
Silver Spring, MD 20910
E-mail: w-nws.webmaster@noaa.gov
Page last modified: May 16, 2007
NATIONAL WEATHER SERVICE: for Safety, for Work, for Fun - FOR LIFE